TimePST,TemperatureF,Dew PointF,Humidity,Sea Level PressureIn,VisibilityMPH,Wind Direction,Wind SpeedMPH,Gust SpeedMPH,PrecipitationIn,Events,Conditions,WindDirDegrees,DateUTC
12:15 AM,42.8,42.8,100,30.06,9.0,SSE,5.8,-,0.00,,Overcast,150,2012-12-07 08:15:00
12:35 AM,42.8,42.8,100,30.06,10.0,SSE,6.9,-,0.01,,Overcast,160,2012-12-07 08:35:00
12:55 AM,42.8,42.8,100,30.05,10.0,SE,8.1,-,0.01,,Mostly Cloudy,140,2012-12-07 08:55:00
1:15 AM,42.8,42.8,100,30.04,10.0,SE,12.7,-,0.00,,Mostly Cloudy,140,2012-12-07 09:15:00
1:35 AM,42.8,42.8,100,30.04,10.0,SSE,8.1,-,0.00,,Mostly Cloudy,150,2012-12-07 09:35:00
1:55 AM,42.8,42.8,100,30.04,10.0,South,6.9,-,0.00,,Overcast,170,2012-12-07 09:55:00
2:15 AM,42.8,42.8,100,30.05,10.0,South,9.2,-,0.00,,Overcast,180,2012-12-07 10:15:00
2:35 AM,42.8,42.8,100,30.04,9.0,South,5.8,-,0.00,,Overcast,190,2012-12-07 10:35:00
2:55 AM,42.8,42.8,100,30.04,8.0,South,9.2,-,0.01,,Overcast,190,2012-12-07 10:55:00
3:15 AM,42.8,42.8,100,30.02,10.0,South,8.1,-,0.00,,Overcast,180,2012-12-07 11:15:00
3:35 AM,42.8,42.8,100,30.02,10.0,South,4.6,-,0.00,,Overcast,190,2012-12-07 11:35:00
3:55 AM,42.8,42.8,100,30.01,10.0,South,5.8,-,0.00,,Overcast,170,2012-12-07 11:55:00
4:15 AM,42.8,42.8,100,30.00,10.0,SSE,8.1,-,0.00,,Overcast,150,2012-12-07 12:15:00
4:35 AM,42.8,42.8,100,30.00,10.0,SSE,5.8,-,0.00,,Mostly Cloudy,160,2012-12-07 12:35:00
4:55 AM,44.6,42.8,93,30.00,10.0,South,5.8,-,0.00,,Overcast,190,2012-12-07 12:55:00
5:15 AM,42.8,42.8,100,30.00,9.0,South,9.2,-,0.00,,Overcast,190,2012-12-07 13:15:00
5:35 AM,42.8,42.8,100,29.99,7.0,South,6.9,-,0.02,,Overcast,180,2012-12-07 13:35:00
5:55 AM,42.8,42.8,100,29.99,5.0,South,6.9,-,0.04,,Overcast,170,2012-12-07 13:55:00
6:15 AM,42.8,42.8,100,29.98,5.0,South,5.8,-,0.03,,Overcast,190,2012-12-07 14:15:00
6:35 AM,42.8,42.8,100,29.98,7.0,South,6.9,-,0.06,,Overcast,180,2012-12-07 14:35:00
6:55 AM,42.8,42.8,100,29.97,6.0,South,4.6,-,0.09,,Overcast,190,2012-12-07 14:55:00
7:15 AM,42.8,42.8,100,29.97,4.0,South,4.6,-,0.02,,Overcast,190,2012-12-07 15:15:00
7:35 AM,42.8,42.8,100,29.97,5.0,SSW,3.5,-,0.03,,Overcast,200,2012-12-07 15:35:00
7:55 AM,42.8,42.8,100,29.96,7.0,South,5.8,-,0.05,,Overcast,170,2012-12-07 15:55:00
8:15 AM,42.8,42.8,100,29.96,10.0,SW,3.5,-,0.00,,Overcast,230,2012-12-07 16:15:00
8:35 AM,42.8,42.8,100,29.96,2.5,SSW,4.6,-,0.05,,Overcast,200,2012-12-07 16:35:00
8:55 AM,42.8,42.8,100,29.96,4.0,South,5.8,-,0.07,,Overcast,190,2012-12-07 16:55:00
9:15 AM,42.8,42.8,100,29.96,4.0,SSW,3.5,-,0.04,,Mostly Cloudy,210,2012-12-07 17:15:00
9:35 AM,42.8,42.8,100,29.96,10.0,South,3.5,-,0.04,,Mostly Cloudy,170,2012-12-07 17:35:00
9:55 AM,42.8,42.8,100,29.96,10.0,South,5.8,-,0.04,,Mostly Cloudy,180,2012-12-07 17:55:00
10:15 AM,42.8,42.8,100,29.96,10.0,SSW,8.1,-,0.00,,Mostly Cloudy,210,2012-12-07 18:15:00
10:35 AM,44.6,44.6,100,29.97,10.0,SSW,9.2,17.3,0.00,,Mostly Cloudy,210,2012-12-07 18:35:00
10:55 AM,44.6,42.8,93,29.96,10.0,SW,6.9,-,0.00,,Mostly Cloudy,230,2012-12-07 18:55:00
11:15 AM,44.6,41.0,87,29.97,10.0,SW,9.2,-,0.00,,Mostly Cloudy,230,2012-12-07 19:15:00
11:35 AM,44.6,41.0,87,29.96,10.0,SW,8.1,-,0.00,,Overcast,220,2012-12-07 19:35:00
11:55 AM,44.6,39.2,81,29.95,10.0,SW,11.5,19.6,0.00,,Scattered Clouds,230,2012-12-07 19:55:00
12:15 PM,44.6,39.2,81,29.96,10.0,WSW,8.1,21.9,0.00,,Scattered Clouds,250,2012-12-07 20:15:00
12:35 PM,44.6,39.2,81,29.96,10.0,West,9.2,-,0.00,,Scattered Clouds,270,2012-12-07 20:35:00
12:55 PM,46.4,39.2,76,29.97,10.0,West,9.2,-,0.00,,Mostly Cloudy,280,2012-12-07 20:55:00
1:15 PM,46.4,39.2,76,29.98,10.0,West,9.2,17.3,0.00,,Mostly Cloudy,270,2012-12-07 21:15:00
1:35 PM,46.4,37.4,71,29.98,10.0,WSW,8.1,16.1,0.00,,Scattered Clouds,250,2012-12-07 21:35:00
1:55 PM,44.6,37.4,76,29.99,10.0,WSW,10.4,16.1,0.00,,Mostly Cloudy,240,2012-12-07 21:55:00
2:15 PM,42.8,39.2,87,30.00,10.0,NW,17.3,21.9,0.00,,Mostly Cloudy,320,2012-12-07 22:15:00
2:35 PM,41.0,39.2,93,30.01,5.0,NW,12.7,20.7,0.00,,Overcast,310,2012-12-07 22:35:00
2:55 PM,39.2,37.4,93,30.02,10.0,WNW,9.2,17.3,0.00,,Mostly Cloudy,300,2012-12-07 22:55:00
3:15 PM,39.2,37.4,93,30.03,10.0,WNW,6.9,-,0.00,,Partly Cloudy,300,2012-12-07 23:15:00
3:35 PM,39.2,37.4,93,30.04,10.0,West,5.8,-,0.00,,Partly Cloudy,270,2012-12-07 23:35:00
3:55 PM,39.2,39.2,100,30.04,10.0,West,5.8,-,0.00,,Scattered Clouds,270,2012-12-07 23:55:00
4:15 PM,41.0,37.4,87,30.05,10.0,WNW,5.8,-,0.00,,Mostly Cloudy,300,2012-12-08 00:15:00
4:35 PM,39.2,39.2,100,30.06,10.0,Calm,Calm,-,0.00,,Overcast,0,2012-12-08 00:35:00
4:55 PM,39.2,39.2,100,30.06,10.0,SSW,3.5,-,0.00,,Mostly Cloudy,210,2012-12-08 00:55:00
5:15 PM,37.4,37.4,100,30.06,10.0,Calm,Calm,-,0.00,,Partly Cloudy,0,2012-12-08 01:15:00
5:35 PM,37.4,37.4,100,30.07,10.0,Calm,Calm,-,0.00,,Clear,0,2012-12-08 01:35:00
6:15 PM,37.4,37.4,100,30.08,10.0,Calm,Calm,-,0.00,,Partly Cloudy,0,2012-12-08 02:15:00
6:35 PM,37.4,37.4,100,30.08,10.0,Calm,Calm,-,0.00,,Mostly Cloudy,0,2012-12-08 02:35:00
7:15 PM,37.4,37.4,100,30.09,10.0,Calm,Calm,-,0.00,,Overcast,0,2012-12-08 03:15:00
7:35 PM,37.4,37.4,100,30.09,10.0,Calm,Calm,-,0.00,,Overcast,0,2012-12-08 03:35:00
7:55 PM,35.6,35.6,100,30.09,10.0,Calm,Calm,-,0.00,,Overcast,0,2012-12-08 03:55:00
8:15 PM,39.2,35.6,87,30.10,10.0,West,4.6,-,0.00,,Mostly Cloudy,270,2012-12-08 04:15:00
8:35 PM,39.2,35.6,87,30.10,10.0,West,3.5,-,0.00,,Partly Cloudy,280,2012-12-08 04:35:00
8:55 PM,37.4,35.6,93,30.11,10.0,Calm,Calm,-,0.00,,Scattered Clouds,0,2012-12-08 04:55:00
9:15 PM,35.6,35.6,100,30.11,10.0,Calm,Calm,-,0.00,,Mostly Cloudy,0,2012-12-08 05:15:00
9:35 PM,37.4,35.6,93,30.11,10.0,Calm,Calm,-,0.00,,Partly Cloudy,0,2012-12-08 05:35:00
9:55 PM,35.6,35.6,100,30.11,10.0,Calm,Calm,-,0.00,,Partly Cloudy,0,2012-12-08 05:55:00
10:15 PM,35.6,35.6,100,30.11,10.0,ENE,4.6,-,0.00,,Clear,70,2012-12-08 06:15:00
10:35 PM,37.4,35.6,93,30.12,10.0,Calm,Calm,-,0.00,,Clear,0,2012-12-08 06:35:00
10:55 PM,35.6,35.6,100,30.13,10.0,Calm,Calm,-,0.00,,Clear,0,2012-12-08 06:55:00
11:15 PM,35.6,35.6,100,30.13,10.0,Calm,Calm,-,0.00,,Scattered Clouds,0,2012-12-08 07:15:00
11:35 PM,35.6,35.6,100,30.14,10.0,Calm,Calm,-,0.00,,Scattered Clouds,0,2012-12-08 07:35:00
11:55 PM,35.6,35.6,100,30.13,10.0,Calm,Calm,-,0.00,,Mostly Cloudy,0,2012-12-08 07:55:00